Location: Ballingbuur
(53.0000°N, 5.7667°E)
Time: 19:47:57
(UTC+00:00)

Cosmos 1356 - Pass Details

Date: 18 April 2021
Orbit: 438 x 442 km, 81.1° (Epoch: 13 May)

Event Time Altitude Azimuth Distance (km) Brightness Sun altitude
Rises 19:23:04 0° 352° (N) 2,454 7.7 -6.4°
Reaches altitude 10° 19:25:16 10° 2° (N) 1,577 6.5 -6.7°
Maximum altitude 19:28:27 34° 70° (ENE) 751 4.2 -7.1°
Drops below altitude 10° 19:31:36 10° 137° (SE) 1,562 5.5 -7.5°
Enters shadow 19:31:49 - 139° (SE) 1,644 5.6 -7.6°
